Regional Weather Roundup
Issued by NWS Jackson, KY

Home | Current Version | Previous Version | Graphics & Text | Print | Product List | Glossary Off
Versions: 1 2 3 4 5 6 7 8 9 10 11 12 13 14 15 16 17 18 19 20 21 22 23 24 25 26 27

000
ASUS43 KJKL 230810
RWRJKL

EAST KENTUCKY HOURLY WEATHER ROUNDUP
NATIONAL WEATHER SERVICE JACKSON KY
400 AM EDT MON OCT 23 2017

NOTE: "FAIR" INDICATES FEW OR NO CLOUDS BELOW 12,000 FEET WITH
NO SIGNIFICANT WEATHER AND/OR OBSTRUCTIONS TO VISIBILITY.

* THESE REPORTS ARE NOT UNDER NWS QUALITY CONTROL AND MAY NOT
  REPORT WEATHER SUCH AS PRECIPITATION AND FOG.

KYZ079-080-083-085-087-088-110-112-115-119-120-230900
...EASTERN KENTUCKY...

CITY           SKY/WX    TMP DP  RH WIND       PRES   REMARKS
JACKSON        CLOUDY    67  54  63 SE7       30.02F
LONDON         CLOUDY    67  56  67 SE7       29.97F
SOMERSET*      CLOUDY    66  54  63 S7        29.95F
MONTICELLO*    CLOUDY    66  58  75 NE8       29.96F
WILLIAMSBURG*  CLOUDY    64  57  77 SE3       29.97F
MIDDLESBORO*   CLOUDY    62  58  89 NW5       30.00F
HARLAN APT*    CLOUDY    68  55  64 NE7       30.01F
PIKE CO APT*     N/A     67  55  66 SE9G18    30.04F
BIG SANDY APT* CLOUDY    67  55  66 SE8       30.04F
MOREHEAD APT*  PTSUNNY   66  52  59 VRB5      30.01F
$$

KYZ035-036-041-042-044-050-067-078-099-230900
...CENTRAL KENTUCKY...

CITY           SKY/WX    TMP DP  RH WIND       PRES   REMARKS
MT STERLING*   CLOUDY    64  54  68 S7        29.99F
FLEMING/MASON* MOCLDY    65  54  66 SE12      30.00F
DANVILLE*      CLOUDY    64  54  68 S7        29.96F
LEXINGTON      CLOUDY    66  55  67 SE9       29.95F
FRANKFORT      CLOUDY    67  53  61 SE7       29.93F
LOUISVILLE     CLOUDY    68  57  68 SE8       29.88F
LEBANON*         N/A     68  55  64 SE12G17   29.92F
GLASGOW*       MOCLDY    68  59  73 S7        29.88F
BOWLING GREEN  LGT RAIN  71  63  75 SE12      29.85F
$$

KYZ091>093-OHZ055-061-077-WVZ005-015-034-035-042-230900
...SOUTHERN OHIO/WEST VIRGINIA...

CITY           SKY/WX    TMP DP  RH WIND       PRES   REMARKS
COVINGTON      CLOUDY    66  54  65 SE12      29.95F
COLUMBUS       CLOUDY    64  52  64 SE9       30.02F
DAYTON         CLOUDY    65  52  62 SE14      29.98F
WILMINGTON     MOCLDY    63  53  70 SE7       29.99F
HUNTINGTON     CLOUDY    65  51  60 E6        30.03F
CHARLESTON     MOCLDY    67  52  58 SE6       30.07F
PINEVILLE*     MOCLDY    61  55  81 MISG      30.16F
BECKLEY        CLOUDY    62  53  72 SE14G21   30.15F
BLUEFIELD      CLOUDY    60  54  80 VRB7      30.17F
LOGAN CO APT*    N/A     68  55  64 CALM      30.07F
$$

VAZ002-007-008-TNZ017-027-036-066-071-230900
...SOUTHWEST VIRGINIA/EAST TENNESSEE...

CITY           SKY/WX    TMP DP  RH WIND       PRES   REMARKS
WISE*          CLOUDY    63  55  77 S10G18    30.10F
JONESVILLE*      N/A     66  57  72 E8        30.06F
ABINGDON*      CLOUDY    69  58  67 SE8       30.12F
BRISTOL        CLOUDY    68  60  75 SE8       30.09F
MORRISTOWN*    SUNNY     68  59  73 E5G12     30.01F
SEVIERVILLE*   SUNNY     63  57  82 CALM      29.98F
KNOXVILLE      CLOUDY    73  61  65 SE13      29.96F
LAFOLLETTE*    SUNNY     59  57  94 CALM      30.03F FOG
OAK RIDGE      CLOUDY    62  60  93 VRB3      29.99F
CROSSVILLE     LGT RAIN  64  59  83 SE10G18   29.96F
NASHVILLE      CLOUDY    70  64  81 S12G22    29.87F
$$

...KEY TO REMARKS...
VSB - VISIBILITY IN MILES
WCI - WIND CHILL INDEX
HX  - HEAT INDEX

$$




USA.gov is the U.S. government's official web portal to all federal, state and local government web resources and services.